[[{"header":{"parameterUnit":"m.s-1","parameterCategory":1,"la1":30.2991,"la2":30.254,"lo1":-89.0895,"lo2":-89.0444,"dy":0.0017,"dx":0.0017,"nx":28,"ny":28,"refTime":"2024-08-19T09:00:00:Z","depth":0,"parameterNumber":2,"parameterNumberName":"U-component_of_WINDS"},"data":[0,0,0,0,0,0,0,0,0,0,0,0,0,0,0,0,0,0,0,0,0,0,0,0,0,0,0,0,0,0,0,0,0,0,0,0,0,0,0,0,0,0,0,0,0,0,0,0,0,0,0,0,0,0,0,0,0,0,4.684,4.6842,0,4.7047,4.7049,4.7051,4.6993,4.6989,4.6985,4.6981,4.7198,4.7207,4.7217,0,0,0,0,0,0,0,0,0,0,0,0,0,4.64,4.6409,4.684,4.6843,4.6845,4.7046,4.7049,4.7052,4.6994,4.6989,4.6984,4.6979,4.7195,4.7206,4.7218,0,0,0,0,0,0,0,0,0,0,0,0,0,4.6598,4.6411,4.684,4.684,4.6842,4.7046,4.7049,4.7053,4.6995,4.6989,4.6982,4.6976,4.7191,4.7205,4.7219,4.7436,0,0,4.7264,4.727,0,0,0,0,0,0,0,0,4.6587,4.6614,4.6838,4.6841,4.6843,4.6987,4.6974,4.7181,4.6997,4.6937,4.6981,4.6973,4.7133,4.7152,4.7205,4.7446,4.7456,4.7265,4.7274,4.728,4.7284,0,0,0,0,0,0,0,4.6573,4.6605,4.6922,4.6841,4.6845,4.6832,4.6853,4.7013,4.7069,4.6942,4.6938,4.6963,4.7134,4.7191,4.721,4.7459,4.7265,4.7278,4.7287,4.7292,4.7888,4.7895,0,0,0,0,0,0,4.6556,4.6594,4.6915,4.6928,4.6697,4.6845,4.6868,4.6948,4.7067,4.7078,4.6968,4.696,4.7169,4.7193,4.7217,4.7478,4.728,4.7294,4.7302,4.7881,4.789,4.7897,0,0,0,0,0,0,4.6547,4.6586,4.6907,4.676,4.68,4.6859,4.6949,4.6955,4.7012,4.7086,4.7096,4.7016,4.7165,4.7197,4.7382,4.7485,4.73,4.7314,4.7873,4.7884,4.7893,4.8002,0,0,0,0,0,0,4.6535,4.6583,4.6665,4.6762,4.6808,4.7067,4.6955,4.6964,4.7037,4.7028,4.7134,4.7146,4.7163,4.736,4.7396,4.7502,4.7325,4.7864,4.7877,4.789,4.799,4.8015,4.8037,0,0,0,0,0,4.6519,4.6689,4.6669,4.6708,4.6911,4.7073,4.7099,4.7114,4.7046,4.7129,4.7177,4.7142,4.7468,4.738,4.742,4.7531,4.7857,4.7874,4.7889,4.7979,4.801,4.8037,0,0,0,0,0,0,4.6604,4.6701,4.6681,4.6886,4.6972,4.7063,4.7168,4.7146,4.7254,4.7241,4.7256,4.7281,4.747,4.7519,4.7419,4.7747,4.7653,4.7677,4.7708,4.7738,4.7761,4.7745,4.7337,0,0,0,0,0,4.6646,4.6767,4.6847,4.702,4.7064,4.7109,4.718,4.7184,4.7273,4.731,4.7371,4.746,4.7583,4.7663,4.778,4.7997,4.8019,4.8093,4.8117,4.8136,4.8157,4.8275,4.8309,4.7949,4.7949,4.7949,0,0,4.6735,4.6803,4.6879,4.7039,4.7105,4.7232,4.714,4.7278,4.7373,4.7331,4.7509,4.7557,4.7658,4.786,4.7952,4.7907,4.8262,4.8156,4.8171,4.8182,4.8295,4.8329,4.8359,4.796,4.7958,4.7957,0,0,4.6961,4.7025,4.7176,4.7245,4.7345,4.7374,4.7411,4.7506,4.7535,4.7713,4.7684,4.7798,4.8009,4.8082,4.8147,4.84,4.8373,4.8438,4.8562,4.8677,4.8706,4.8731,4.8821,4.8853,4.8459,4.846,4.846,0,4.706,4.7248,4.7258,4.7398,4.7469,4.7436,4.7589,4.7656,4.7791,4.7841,4.7789,4.8051,4.8117,4.8335,4.8397,4.8451,4.8493,4.8426,4.87,4.8726,4.8749,4.8836,4.887,4.8467,4.8466,4.8465,4.8464,0,4.7364,4.7495,4.7605,4.7733,4.7817,4.7964,4.7997,4.8082,4.8078,4.8113,4.8295,4.8372,4.8504,4.8556,4.8555,4.8774,4.8743,4.8696,4.8601,4.8791,4.8872,4.8905,4.8477,4.8474,4.8472,4.8471,0,0,4.7649,4.778,4.7821,4.7878,4.7987,4.809,4.8235,4.8362,4.8433,4.8528,4.8651,4.8829,4.8785,4.8859,4.8866,4.8967,4.9162,4.8907,4.8909,4.8951,4.9409,4.9443,4.9481,4.9145,4.9151,4.9156,4.94,0,4.7885,4.8138,4.8151,4.8382,4.8504,4.8473,4.86,4.8681,4.8718,4.8827,4.8868,4.8994,4.8927,4.8971,4.907,4.9117,4.9254,4.91,4.926,4.9266,4.9235,4.9524,4.9561,4.9787,4.9432,4.9437,4.9441,0,4.8193,4.8295,4.8537,4.8628,4.8679,4.8793,4.8909,4.9014,4.9106,4.9126,4.9207,4.92,4.935,4.925,4.9458,4.9353,4.9419,4.9453,4.9462,4.9477,4.9364,4.9546,4.986,4.9893,4.9491,4.9487,4.9484,0,4.8376,4.8574,4.8744,4.8795,4.8905,4.8986,4.9036,4.9121,4.9196,4.9299,4.9348,4.9468,4.9534,4.9627,4.9653,4.9578,4.986,4.9763,4.9881,4.9881,4.9942,4.9937,5.027,4.9986,4.9985,4.9984,4.9984,0,4.8638,4.8787,4.8828,4.8933,4.91,4.9114,4.9279,4.9324,4.94,4.9514,4.9496,4.9604,4.9631,4.9744,4.9765,4.9934,4.9964,4.9985,4.9988,4.9986,4.9983,5.0029,5.0014,4.9993,4.9991,4.999,4.9988,0,4.887,4.8904,4.9087,4.9176,4.9202,4.9321,4.9397,4.9499,4.9532,4.9677,4.9712,4.9766,4.9898,4.9932,5.0091,5.0105,5.0304,5.0293,5.0272,5.0272,5.0388,5.0376,5.0761,5.0812,5.0495,5.0498,5.0501,0,4.9035,4.9148,4.9249,4.9323,4.9376,4.9496,4.9571,4.959,4.967,4.9783,4.9871,5.0001,5.0105,5.0319,5.0373,5.0495,5.0486,5.0613,5.0505,5.0498,5.0488,5.048,5.0491,5.0633,5.0637,5.0639,5.0642,0,4.9322,4.9333,4.9441,4.9557,4.9647,4.974,4.9828,4.989,4.9921,5.0013,5.0146,5.0227,5.0389,5.0518,5.064,5.0693,5.0674,5.0675,5.0709,5.0707,5.069,5.07,5.0328,5.0666,5.0664,5.0662,5.0661,5.066,4.9525,4.9625,4.971,4.9833,4.99,4.9983,5.0082,5.0127,5.0239,5.037,5.0375,5.0521,5.061,5.0772,5.0832,5.0947,5.0909,5.0958,5.097,5.0982,5.0991,5.0672,5.097,5.0969,5.0968,5.0968,5.0967,0,4.9811,4.9865,4.9977,5.0099,5.0196,5.0166,5.0263,5.0346,5.0473,5.0557,5.066,5.0814,5.0939,5.1003,5.1127,5.1207,5.1201,5.1239,5.1233,5.1246,5.1019,5.0977,5.1242,5.1242,5.1242,5.1242,5.1242,5.1242,4.9971,5.0138,5.0158,5.0359,5.0411,5.0552,5.0609,5.0686,5.0753,5.0925,5.1028,5.1068,5.1144,5.1274,5.1388,5.1403,5.145,5.1493,5.1504,5.129,5.1262,5.1235,5.1196,5.1503,5.1503,5.1721,5.1723,5.1724]},{"header":{"parameterUnit":"m.s-1","parameterCategory":1,"la1":30.2991,"la2":30.254,"lo1":-89.0895,"lo2":-89.0444,"dy":0.0017,"dx":0.0017,"nx":28,"ny":28,"refTime":"2024-08-19T09:00:00:Z","depth":0,"parameterNumber":3,"parameterNumberName":"V-component_of_WINDS"},"data":[0,0,0,0,0,0,0,0,0,0,0,0,0,0,0,0,0,0,0,0,0,0,0,0,0,0,0,0,0,0,0,0,0,0,0,0,0,0,0,0,0,0,0,0,0,0,0,0,0,0,0,0,0,0,0,0,0,0,2.2556,2.2558,0,2.2772,2.2775,2.2777,2.2806,2.2804,2.2802,2.28,2.3021,2.3028,2.3036,0,0,0,0,0,0,0,0,0,0,0,0,0,2.2166,2.2173,2.2556,2.2558,2.2561,2.2772,2.2775,2.2778,2.2807,2.2804,2.2802,2.28,2.3018,2.3028,2.3037,0,0,0,0,0,0,0,0,0,0,0,0,0,2.2354,2.2175,2.2555,2.2601,2.2607,2.2771,2.2775,2.2779,2.2807,2.2804,2.2801,2.2798,2.3015,2.3027,2.3038,2.3171,0,0,2.3074,2.3079,0,0,0,0,0,0,0,0,2.2343,2.2368,2.2592,2.2598,2.2605,2.2759,2.2718,2.291,2.2808,2.2731,2.28,2.2797,2.2936,2.2954,2.3001,2.3181,2.3191,2.3075,2.3082,2.3087,2.309,0,0,0,0,0,0,0,2.233,2.2359,2.2641,2.2595,2.2603,2.261,2.2633,2.2755,2.2848,2.2738,2.274,2.2766,2.2939,2.299,2.3007,2.3194,2.3074,2.3085,2.3092,2.3097,2.3493,2.3496,0,0,0,0,0,0,2.2309,2.2348,2.2634,2.2648,2.2464,2.262,2.2646,2.2713,2.2847,2.2865,2.2768,2.2766,2.2972,2.2993,2.3015,2.3179,2.3087,2.3098,2.3104,2.3489,2.3494,2.3497,0,0,0,0,0,0,2.23,2.2334,2.2626,2.2499,2.2536,2.263,2.2705,2.2719,2.277,2.287,2.2887,2.2803,2.297,2.2998,2.3132,2.3187,2.3103,2.3113,2.3485,2.3491,2.3495,2.3509,0,0,0,0,0,0,2.2289,2.2331,2.2383,2.25,2.2543,2.274,2.2708,2.2725,2.279,2.279,2.2907,2.2924,2.297,2.3114,2.3143,2.3202,2.3123,2.3481,2.3488,2.3494,2.3504,2.3514,2.3522,0,0,0,0,0,2.2275,2.2378,2.2385,2.242,2.261,2.2743,2.2768,2.282,2.2794,2.2847,2.2911,2.292,2.3176,2.3128,2.3161,2.3223,2.3477,2.3486,2.3493,2.35,2.3512,2.3522,0,0,0,0,0,0,2.2266,2.2394,2.2404,2.2548,2.2634,2.2748,2.2816,2.2831,2.2927,2.2922,2.2982,2.3008,2.3139,2.3194,2.3138,2.3358,2.3324,2.3339,2.3318,2.333,2.3339,2.3324,2.3132,0,0,0,0,0,2.228,2.2378,2.2485,2.2602,2.2645,2.2723,2.2783,2.2815,2.2907,2.2943,2.3017,2.3106,2.3206,2.3271,2.3369,2.3511,2.3537,2.357,2.358,2.3587,2.3599,2.3678,2.3694,2.3524,2.3523,2.3523,0,0,2.2312,2.2394,2.2452,2.2602,2.2673,2.2772,2.2754,2.286,2.2934,2.2959,2.309,2.3147,2.325,2.3388,2.3453,2.3438,2.3652,2.3597,2.3602,2.3611,2.3688,2.3704,2.3718,2.3529,2.3528,2.3527,0,0,2.242,2.2492,2.2597,2.2668,2.2776,2.2827,2.2852,2.2963,2.3002,2.3134,2.3155,2.3243,2.3415,2.3487,2.3546,2.3679,2.3691,2.3709,2.3758,2.3835,2.3848,2.386,2.3908,2.3924,2.3721,2.3721,2.3721,0,2.2446,2.2597,2.2649,2.2755,2.282,2.2847,2.2953,2.3019,2.3153,2.3197,2.3179,2.3394,2.3465,2.362,2.3652,2.3699,2.3729,2.3697,2.3842,2.3855,2.3867,2.3913,2.3931,2.3723,2.3723,2.3722,2.3722,0,2.2623,2.2728,2.2799,2.2928,2.3,2.3106,2.3173,2.324,2.3265,2.3318,2.3451,2.3537,2.3652,2.3691,2.3717,2.385,2.3838,2.383,2.3797,2.3884,2.3928,2.3946,2.3725,2.3725,2.3724,2.3724,0,0,2.2734,2.2889,2.2914,2.2973,2.3092,2.3173,2.3279,2.3392,2.3448,2.3538,2.3628,2.3772,2.3765,2.3832,2.3866,2.3932,2.4032,2.3917,2.392,2.3935,2.4184,2.4189,2.4209,2.404,2.4043,2.4046,2.4175,0,2.2857,2.3047,2.3096,2.3258,2.3354,2.338,2.3472,2.3555,2.3606,2.3695,2.3751,2.3852,2.3836,2.3876,2.3943,2.4006,2.4083,2.3997,2.4124,2.4128,2.4098,2.4232,2.4239,2.4357,2.4193,2.4196,2.4198,0,2.3026,2.312,2.3291,2.3397,2.3439,2.3521,2.3628,2.3713,2.3806,2.3839,2.3912,2.3939,2.4049,2.4009,2.4161,2.4102,2.4156,2.4194,2.42,2.4215,2.4169,2.4251,2.4396,2.4414,2.4226,2.4223,2.4221,0,2.309,2.3259,2.3384,2.3432,2.3559,2.3616,2.3671,2.3761,2.3825,2.3918,2.396,2.4064,2.4122,2.4201,2.4255,2.4221,2.4402,2.4367,2.4432,2.4431,2.4471,2.4468,2.4627,2.4504,2.4504,2.4503,2.4503,0,2.3223,2.3327,2.3414,2.349,2.3607,2.3661,2.3775,2.3831,2.3911,2.3998,2.4026,2.4107,2.4172,2.4262,2.4304,2.4424,2.4449,2.4478,2.4488,2.4477,2.4473,2.4514,2.4507,2.4508,2.4507,2.4506,2.4505,0,2.3315,2.3378,2.3515,2.3623,2.3652,2.3733,2.3825,2.39,2.3951,2.4061,2.409,2.417,2.4277,2.4338,2.4472,2.45,2.4633,2.4639,2.4602,2.4607,2.4669,2.4662,2.4861,2.489,2.4746,2.4747,2.4749,0,2.3396,2.3477,2.3593,2.3653,2.3709,2.3806,2.3872,2.3928,2.3995,2.4106,2.4167,2.4276,2.4366,2.4534,2.4605,2.4707,2.4716,2.4778,2.4732,2.4717,2.4718,2.4713,2.4721,2.4787,2.4788,2.4789,2.479,0,2.3534,2.356,2.3654,2.3758,2.3836,2.3921,2.4005,2.4052,2.4122,2.4195,2.4305,2.4375,2.4511,2.4618,2.4726,2.4782,2.4798,2.4804,2.4825,2.4814,2.4789,2.4804,2.4625,2.48,2.4799,2.4798,2.4797,2.4797,2.3624,2.3696,2.3789,2.3892,2.3961,2.4038,2.4114,2.4174,2.4266,2.4382,2.4409,2.4524,2.4614,2.4761,2.4819,2.4909,2.4898,2.4928,2.4936,2.4943,2.4945,2.4774,2.4929,2.4929,2.4929,2.4928,2.4928,0,2.3763,2.3824,2.3918,2.4034,2.4115,2.4122,2.4215,2.4282,2.4383,2.4466,2.4553,2.4678,2.4782,2.4859,2.4965,2.5022,2.5032,2.5048,2.5045,2.5058,2.4949,2.4921,2.5038,2.5038,2.5038,2.5038,2.5038,2.5038,2.3845,2.3968,2.4005,2.4162,2.4221,2.4335,2.4387,2.4459,2.4525,2.4663,2.475,2.4799,2.488,2.4991,2.5086,2.5106,2.5143,2.5159,2.518,2.5077,2.5065,2.5054,2.5028,2.5166,2.5166,2.5281,2.5282,2.5283]}]]